Bradford, PA

9:32 PM EST on February 25, 2018 (GMT -0500)
Bradford Regional

Weather History for KBFD - October, 2012

Change the Weather History Date:

Monday, October 29, 2012

  Actual Average Record
Temperature  
Mean Temperature 40 °F 43 °F  
Max Temperature 42 °F 52 °F 72 °F (1999)
Min Temperature 37 °F 33 °F 10 °F (1965)
Degree Days  
Heating Degree Days 26 18  
Month to date heating degree days 400  
Since 1 July heating degree days 817  
Cooling Degree Days 0 0  
Month to date cooling degree days 0  
Year to date cooling degree days 192  
Moisture  
Dew Point 37 °F    
Average Humidity 88    
Maximum Humidity 93    
Minimum Humidity 82    
Precipitation  
Precipitation 1.49 in 0.10 in 1.63 in (1973)
Month to date precipitation 3.21  
Year to date precipitation 37.08  
Sea Level Pressure  
Sea Level Pressure 29.54 in    
Wind  
Wind Speed 13 mph (North)    
Max Wind Speed 32 mph    
Max Gust Speed 48 mph    
Visibility 5 miles    
Events Rain    
T = Trace of Precipitation, MM = Missing Value Source: NWS Daily Summary

Daily Weather History Graph

Daily Weather History Graph

Search for Another Location

Airport or City:

Trip Planner

Search our weather history database for the weather conditions in past years. The results will help you decide how hot, cold, wet, or windy it might be!

Date:

Astronomy

Oct. 29, 2012 Rise Set
Actual Time 7:43 AM EDT 6:12 PM EDT
Civil Twilight 7:14 AM EDT 6:40 PM EDT
Nautical Twilight 6:42 AM EDT 7:13 PM EDT
Astronomical Twilight 6:09 AM EDT 7:45 PM EDT
Moon 6:02 PM EDT (10/29) 7:32 AM EDT (10/29)
Length of Visible Light 11h 25m
Length of Day
10h 28m
Full, 100% of the Moon is Illuminated
Oct 29
Full
Oct 29
Full
Nov 6
Last Quarter
Nov 13
New
Nov 20
First Quarter

Hourly Weather History & Observations

Time (EDT) Temp. Windchill Dew Point Humidity Pressure Visibility Wind Dir Wind Speed Gust Speed Precip Events Conditions
12:06 AM 39.9 °F 33.9 °F 37.0 °F 89% 29.80 in 5.0 mi North 9.2 mph - 0.00 in Rain Light Rain
12:39 AM 39.9 °F 35.8 °F 37.0 °F 89% 29.80 in 6.0 mi NNE 5.8 mph - 0.01 in Rain Light Rain
12:53 AM 39.9 °F 35.1 °F 37.0 °F 89% 29.83 in 8.0 mi North 6.9 mph - 0.02 in Rain Light Rain
1:02 AM 39.9 °F 35.1 °F 37.0 °F 89% 29.79 in 7.0 mi North 6.9 mph - 0.01 in Rain Light Rain
1:53 AM 39.9 °F 34.5 °F 37.0 °F 89% 29.81 in 10.0 mi North 8.1 mph - 0.04 in Rain Light Rain
2:30 AM 39.9 °F 34.5 °F 37.0 °F 89% 29.77 in 8.0 mi North 8.1 mph - 0.00 in Rain Light Rain
2:53 AM 39.9 °F 33.9 °F 37.0 °F 89% 29.81 in 9.0 mi North 9.2 mph - 0.01 in Rain Light Rain
3:44 AM 39.9 °F 35.1 °F 37.0 °F 89% 29.76 in 5.0 mi North 6.9 mph - 0.02 in Rain Light Rain
3:53 AM 41.0 °F 35.8 °F 37.0 °F 86% 29.78 in 8.0 mi North 8.1 mph - 0.02 in Rain Light Rain
4:25 AM 39.9 °F 32.9 °F 37.0 °F 89% 29.75 in 7.0 mi North 11.5 mph - 0.01 in Rain Light Rain
4:53 AM 39.9 °F 32.5 °F 37.9 °F 93% 29.76 in 8.0 mi North 12.7 mph - 0.02 in   Overcast
5:53 AM 41.0 °F 34.7 °F 37.9 °F 89% 29.77 in 4.0 mi North 10.4 mph - 0.00 in Rain Light Rain
6:53 AM 41.0 °F 34.7 °F 37.9 °F 89% 29.75 in 5.0 mi North 10.4 mph - 0.01 in Rain Light Rain
7:53 AM 41.0 °F 33.5 °F 37.9 °F 89% 29.73 in 3.0 mi NNW 13.8 mph 20.7 mph 0.00 in   Overcast
8:37 AM 41.0 °F 34.7 °F 37.9 °F 89% 29.71 in 10.0 mi North 10.4 mph 21.9 mph N/A   Overcast
8:53 AM 41.0 °F 34.3 °F 37.9 °F 89% 29.74 in 6.0 mi North 11.5 mph 19.6 mph N/A   Overcast
9:12 AM 41.0 °F 33.5 °F 37.9 °F 89% 29.71 in 2.0 mi North 13.8 mph - 0.00 in Rain Light Rain
9:44 AM 41.0 °F 33.5 °F 37.9 °F 89% 29.70 in 2.5 mi North 13.8 mph 19.6 mph 0.02 in Rain Light Rain
9:51 AM 41.0 °F 34.3 °F 37.4 °F 87% 29.70 in 3.0 mi North 11.5 mph 19.6 mph 0.03 in Rain Light Rain
9:52 AM 41.0 °F 34.7 °F 37.9 °F 89% 29.73 in 3.0 mi North 10.4 mph 19.6 mph 0.03 in Rain Light Rain
10:53 AM 41.0 °F 33.9 °F 37.9 °F 89% 29.69 in 6.0 mi NNW 12.7 mph - 0.03 in Rain Light Rain
11:36 AM 41.0 °F 33.5 °F 37.9 °F 89% 29.65 in 5.0 mi North 13.8 mph 20.7 mph 0.07 in Rain Rain
11:53 AM 41.0 °F 33.1 °F 37.0 °F 86% 29.67 in 3.0 mi NNW 15.0 mph 23.0 mph 0.13 in Rain Rain
12:53 PM 41.0 °F 33.1 °F 37.0 °F 86% 29.61 in 7.0 mi NNW 15.0 mph 25.3 mph 0.04 in Rain Light Rain
1:53 PM 41.0 °F 31.6 °F 37.0 °F 86% 29.57 in 9.0 mi North 20.7 mph 31.1 mph 0.01 in Rain Light Rain
2:53 PM 41.0 °F 31.4 °F 37.0 °F 86% 29.52 in 5.0 mi North 21.9 mph 31.1 mph 0.01 in Rain Light Rain
3:14 PM 39.9 °F 30.8 °F 37.0 °F 89% 29.48 in 2.5 mi NNW 18.4 mph 28.8 mph 0.00 in Rain Light Rain
3:48 PM 39.2 °F 29.8 °F 37.4 °F 93% 29.47 in 3.0 mi NNW 18.4 mph 28.8 mph 0.05 in Rain Light Rain
3:53 PM 39.9 °F 30.5 °F 37.0 °F 89% 29.49 in 3.0 mi North 19.6 mph 29.9 mph 0.05 in Rain Light Rain
4:53 PM 39.9 °F 30.2 °F 36.0 °F 86% 29.41 in 4.0 mi NNW 20.7 mph 31.1 mph 0.11 in Rain Rain
5:03 PM 39.9 °F 29.5 °F 36.0 °F 86% 29.38 in 2.5 mi NNW 24.2 mph 36.8 mph 0.04 in Rain Heavy Rain
5:43 PM 39.0 °F 28.0 °F 35.1 °F 86% 29.35 in 4.0 mi NNW 25.3 mph 33.4 mph 0.20 in Rain Heavy Rain
5:53 PM 39.0 °F 28.0 °F 35.1 °F 86% 29.35 in 3.0 mi NNW 25.3 mph 36.8 mph 0.24 in Rain Heavy Rain
6:53 PM 39.0 °F 28.5 °F 35.1 °F 86% 29.31 in 3.0 mi North 23.0 mph 33.4 mph 0.27 in Rain Heavy Rain
7:53 PM 37.9 °F 25.7 °F 34.0 °F 86% 29.26 in 4.0 mi NNW 29.9 mph 39.1 mph 0.21 in Rain Heavy Rain
8:53 PM 39.9 °F 29.0 °F 35.1 °F 83% 29.18 in 4.0 mi NNW 26.5 mph 38.0 mph 0.11 in Rain Rain
9:13 PM 39.9 °F 28.8 °F 35.1 °F 83% 29.13 in 4.0 mi NNW 27.6 mph 46.0 mph 0.03 in Rain Light Rain
9:53 PM 41.0 °F 30.2 °F 36.0 °F 82% 29.11 in 7.0 mi North 27.6 mph 44.9 mph 0.05 in Rain Light Rain
10:53 PM 41.0 °F 30.5 °F 37.0 °F 86% 29.05 in 4.0 mi NNW 26.5 mph 44.9 mph 0.04 in Rain Light Rain
11:10 PM 41.0 °F 29.5 °F 37.0 °F 86% 29.02 in 4.0 mi NNW 32.2 mph 48.3 mph 0.00 in Rain Light Rain
11:53 PM 42.1 °F 32.3 °F 37.9 °F 85% 29.00 in 4.0 mi NNW 24.2 mph 43.7 mph 0.04 in Rain Light Rain
11:57 PM 42.1 °F 31.7 °F 37.9 °F 85% 28.99 in 4.0 mi North 27.6 mph 43.7 mph 0.00 in Rain Light Rain